Miscellaneous Local Product
Issued by NWS Hastings, NE

Home | Current Version | Previous Version | Text Only | Print | Product List | Glossary On
Versions: 1 2 3 4 5 6 7 8 9 10 11 12 13 14 15 16 17 18 19 20 21 22 23 24 25 26 27 28 29 30 31 32 33 34 35 36 37 38 39 40 41 42 43 44 45 46 47 48 49 50
000
AXUS43 KGID 160402
MISGRI

GID CWA HOURLY WEATHER ROUNDUP
NATIONAL WEATHER SERVICE HASTINGS NE
1000 PM CST FRI DEC 15 2017

NOTE: "FAIR" INDICATES FEW OR NO CLOUDS BELOW 12,000 FEET WITH NO
SIGNIFICANT WEATHER AND/OR OBSTRUCTIONS TO VISIBILITY.

...SOUTH CENTRAL NEBRASKA...

CITY           SKY/WX    TMP DP  RH WIND       PRES   REMARKS
GRAND ISLAND   CLOUDY    43  20  39 SW15      29.74F
KEARNEY        CLEAR     41  15  35 SW14      29.76F
HASTINGS       CLOUDY    42  18  37 SW12G22   29.77S
ORD            CLOUDY    36  23  59 CALM      29.70F
YORK           CLOUDY    36  23  60 SW12      29.76S WCI  27
AURORA         CLOUDY    38  22  52 SW14      29.74F WCI  29
LEXINGTON      CLOUDY    41  13  31 W5        29.76S
HOLDREGE       CLOUDY    40  16  37 SW14      29.77F WCI  32
HEBRON         PTCLDY    43  22  43 SW13G20   29.80F

...NEBRASKA PANHANDLE...

CITY           SKY/WX    TMP DP  RH WIND       PRES   REMARKS
CHADRON        CLOUDY    37  19  48 CALM      29.72F
ALLIANCE       CLOUDY    41  13  31 W8        29.74S
SCOTTSBLUFF    CLOUDY    48   8  19 W12       29.76F
SIDNEY         CLOUDY    39   9  29 W9        29.80F WCI  33

...WESTERN AND NORTH CENTRAL NEBRASKA...

CITY           SKY/WX    TMP DP  RH WIND       PRES   REMARKS
VALENTINE      CLOUDY    34  24  67 W7        29.69S WCI  28
AINSWORTH      PTCLDY    38  26  63 W9        29.69R WCI  31
ONEILL         CLOUDY    37  28  70 SW7       29.67F WCI  31
BROKEN BOW     CLOUDY    35  21  56 W9        29.72F WCI  28
IMPERIAL       CLOUDY    33   9  36 W7        29.78F WCI  27
NORTH PLATTE   CLOUDY    29  18  63 CALM      29.76S
MCCOOK         CLOUDY    41  11  29 W10       29.78F

...EASTERN NEBRASKA...

CITY           SKY/WX    TMP DP  RH WIND       PRES   REMARKS
NORFOLK        PTCLDY    39  25  57 W7        29.68F WCI  34
SO SIOUX CITY  CLOUDY    33  25  72 VRB5      29.69F WCI  29
TEKAMAH        CLOUDY    38  24  57 S7        29.73F WCI  33
COLUMBUS       CLOUDY    37  25  61 SW5       29.74F WCI  33
ALBION         PTCLDY    41  25  52 CALM      29.71F
OMAHA EPPLEY   CLOUDY    34  23  64 SE10      29.76F WCI  26
OFFUTT AFB     CLOUDY    29  21  73 CALM      29.76F
MILLARD        CLOUDY    37  26  62 SE5       29.76F WCI  34
LINCOLN        CLOUDY    41  23  48 SW9       29.78F
NEBRASKA CITY  CLOUDY    43  24  47 SW15      29.79S
BEATRICE       CLOUDY    43  23  46 S14       29.81S
FALLS CITY     CLEAR     43  23  45 SW18      29.84S

...NORTHERN KANSAS...

CITY           SKY/WX    TMP DP  RH WIND       PRES   REMARKS
GOODLAND       CLOUDY    41  14  33 SW14      29.81F
HILL CITY      CLEAR     42  15  33 W9        29.83F
NORTON         CLEAR     37   7  28 SW9       29.80F WCI  31
PHILLIPSBURG   CLEAR     45  14  29 SW10      29.82S
HAYS           CLEAR     37  17  44 SW5       29.86F WCI  33
RUSSELL        CLOUDY    38  19  46 S14       29.84F WCI  30
CONCORDIA      CLEAR     42  22  44 SW16      29.83F
SALINA         CLEAR     41  24  51 S15       29.89F
TOPEKA         CLEAR     42  26  53 S9G18     29.92F



USA.gov is the U.S. government's official web portal to all federal, state and local government web resources and services.